TimeEST,TemperatureF,Dew PointF,Humidity,Sea Level PressureIn,VisibilityMPH,Wind Direction,Wind SpeedMPH,Gust SpeedMPH,PrecipitationIn,Events,Conditions,WindDirDegrees,DateUTC
12:15 AM,46.4,46.4,100,29.93,10.0,Calm,Calm,-,N/A,,Scattered Clouds,0,2012-12-29 05:15:00
12:35 AM,46.4,46.4,100,29.91,10.0,East,3.5,-,N/A,,Mostly Cloudy,80,2012-12-29 05:35:00
12:55 AM,46.4,46.4,100,29.91,10.0,Calm,Calm,-,N/A,,Light Drizzle,0,2012-12-29 05:55:00
1:15 AM,46.4,46.4,100,29.88,10.0,Calm,Calm,-,N/A,,Overcast,0,2012-12-29 06:15:00
1:35 AM,46.4,46.4,100,29.87,10.0,Calm,Calm,-,N/A,,Overcast,0,2012-12-29 06:35:00
1:55 AM,48.2,46.4,93,29.86,10.0,Calm,Calm,-,N/A,,Light Drizzle,0,2012-12-29 06:55:00
2:15 AM,46.4,46.4,100,29.84,10.0,ENE,4.6,-,N/A,Rain,Light Rain,70,2012-12-29 07:15:00
2:35 AM,46.4,46.4,100,29.82,10.0,NE,3.5,-,N/A,Rain,Light Rain,50,2012-12-29 07:35:00
2:55 AM,48.2,48.2,100,29.80,7.0,Calm,Calm,-,N/A,,Light Drizzle,0,2012-12-29 07:55:00
3:15 AM,50.0,50.0,100,29.78,10.0,Calm,Calm,-,N/A,,Overcast,0,2012-12-29 08:15:00
3:35 AM,50.0,50.0,100,29.75,7.0,East,3.5,-,N/A,,Light Drizzle,90,2012-12-29 08:35:00
3:55 AM,50.0,50.0,100,29.76,7.0,Calm,Calm,-,N/A,Rain,Rain,0,2012-12-29 08:55:00
4:15 AM,50.0,50.0,100,29.76,5.0,North,3.5,-,N/A,Rain,Light Rain,350,2012-12-29 09:15:00
4:35 AM,50.0,50.0,100,29.75,4.0,NNW,6.9,-,N/A,Rain,Light Rain,340,2012-12-29 09:35:00
4:55 AM,50.0,50.0,100,29.72,5.0,North,6.9,-,N/A,Rain,Rain,10,2012-12-29 09:55:00
5:15 AM,48.2,48.2,100,29.72,5.0,North,8.1,-,N/A,Rain,Rain,360,2012-12-29 10:15:00
5:35 AM,46.4,46.4,100,29.73,5.0,North,12.7,16.1,N/A,Rain,Heavy Rain,360,2012-12-29 10:35:00
5:55 AM,46.4,46.4,100,29.76,5.0,NNW,8.1,-,N/A,Rain,Heavy Rain,330,2012-12-29 10:55:00
6:15 AM,46.4,46.4,100,29.78,5.0,NNW,11.5,17.3,N/A,Rain,Heavy Rain,340,2012-12-29 11:15:00
6:35 AM,46.4,46.4,100,29.79,7.0,NW,6.9,-,N/A,Rain,Rain,320,2012-12-29 11:35:00
6:55 AM,46.4,46.4,100,29.77,7.0,North,4.6,-,N/A,Rain,Rain,360,2012-12-29 11:55:00
7:15 AM,46.4,46.4,100,29.77,7.0,NW,3.5,-,N/A,,Drizzle,320,2012-12-29 12:15:00
7:35 AM,46.4,46.4,100,29.77,10.0,NW,3.5,-,N/A,,Overcast,310,2012-12-29 12:35:00
7:55 AM,46.4,46.4,100,29.76,10.0,Calm,Calm,-,N/A,,Overcast,0,2012-12-29 12:55:00
8:15 AM,46.4,46.4,100,29.77,10.0,Calm,Calm,-,N/A,,Overcast,0,2012-12-29 13:15:00
8:35 AM,46.4,46.4,100,29.78,10.0,WSW,3.5,-,N/A,,Light Drizzle,250,2012-12-29 13:35:00
8:55 AM,46.4,46.4,100,29.78,7.0,Calm,Calm,-,N/A,,Overcast,0,2012-12-29 13:55:00
9:15 AM,46.4,46.4,100,29.79,10.0,WSW,4.6,-,N/A,,Overcast,250,2012-12-29 14:15:00
9:35 AM,48.2,48.2,100,29.80,10.0,WSW,4.6,-,N/A,,Overcast,250,2012-12-29 14:35:00
9:55 AM,48.2,48.2,100,29.81,10.0,West,6.9,-,N/A,,Overcast,280,2012-12-29 14:55:00
10:15 AM,50.0,50.0,100,29.81,10.0,WSW,6.9,-,N/A,,Overcast,250,2012-12-29 15:15:00
10:35 AM,51.8,51.8,100,29.82,10.0,West,6.9,-,N/A,,Overcast,260,2012-12-29 15:35:00
10:55 AM,53.6,51.8,94,29.82,10.0,West,10.4,18.4,N/A,,Overcast,270,2012-12-29 15:55:00
11:15 AM,53.6,50.0,88,29.83,10.0,West,10.4,16.1,N/A,,Overcast,280,2012-12-29 16:15:00
11:35 AM,53.6,50.0,88,29.83,10.0,West,9.2,-,N/A,,Overcast,270,2012-12-29 16:35:00
11:55 AM,55.4,51.8,88,29.82,10.0,West,9.2,-,N/A,,Mostly Cloudy,270,2012-12-29 16:55:00
12:15 PM,53.6,48.2,82,29.81,10.0,West,16.1,20.7,N/A,,Overcast,260,2012-12-29 17:15:00
12:35 PM,55.4,50.0,82,29.81,10.0,West,9.2,-,N/A,,Overcast,270,2012-12-29 17:35:00
1:15 PM,53.6,46.4,77,29.79,10.0,WSW,16.1,20.7,N/A,,Scattered Clouds,250,2012-12-29 18:15:00
1:35 PM,55.4,44.6,67,29.79,10.0,WSW,16.1,21.9,N/A,,Scattered Clouds,250,2012-12-29 18:35:00
1:55 PM,55.4,44.6,67,29.79,10.0,West,12.7,19.6,N/A,,Scattered Clouds,260,2012-12-29 18:55:00
2:15 PM,57.2,44.6,63,29.79,10.0,WSW,11.5,19.6,N/A,,Scattered Clouds,240,2012-12-29 19:15:00
2:35 PM,55.4,44.6,67,29.81,10.0,West,12.7,18.4,N/A,,Scattered Clouds,260,2012-12-29 19:35:00
2:55 PM,57.2,44.6,63,29.81,10.0,West,13.8,21.9,N/A,,Scattered Clouds,260,2012-12-29 19:55:00
3:15 PM,55.4,42.8,63,29.81,10.0,West,15.0,23.0,N/A,,Scattered Clouds,260,2012-12-29 20:15:00
3:35 PM,55.4,42.8,63,29.82,10.0,WSW,9.2,18.4,N/A,,Clear,250,2012-12-29 20:35:00
3:55 PM,53.6,42.8,67,29.84,10.0,WSW,11.5,23.0,N/A,,Clear,240,2012-12-29 20:55:00
4:15 PM,53.6,42.8,67,29.84,10.0,WSW,15.0,23.0,N/A,,Scattered Clouds,250,2012-12-29 21:15:00
4:35 PM,51.8,41.0,67,29.85,10.0,WSW,15.0,27.6,N/A,,Scattered Clouds,250,2012-12-29 21:35:00
5:15 PM,50.0,41.0,71,29.87,10.0,WSW,15.0,18.4,N/A,,Overcast,250,2012-12-29 22:15:00
5:35 PM,50.0,41.0,71,29.88,10.0,West,13.8,20.7,N/A,,Overcast,260,2012-12-29 22:35:00
5:55 PM,50.0,41.0,71,29.89,10.0,West,10.4,-,N/A,,Overcast,260,2012-12-29 22:55:00
6:15 PM,48.2,41.0,76,29.90,10.0,WSW,9.2,17.3,N/A,,Overcast,250,2012-12-29 23:15:00
6:35 PM,50.0,41.0,71,29.91,10.0,West,17.3,-,N/A,,Overcast,260,2012-12-29 23:35:00
6:55 PM,48.2,39.2,71,29.93,10.0,West,8.1,19.6,N/A,,Overcast,280,2012-12-29 23:55:00
7:15 PM,46.4,37.4,71,29.94,10.0,WNW,6.9,-,N/A,,Overcast,290,2012-12-30 00:15:00
7:35 PM,46.4,37.4,71,29.95,10.0,West,11.5,16.1,N/A,,Overcast,270,2012-12-30 00:35:00
7:55 PM,46.4,35.6,66,29.95,10.0,West,15.0,26.5,N/A,,Overcast,270,2012-12-30 00:55:00
8:15 PM,46.4,35.6,66,29.97,10.0,West,11.5,-,N/A,,Overcast,270,2012-12-30 01:15:00
8:35 PM,46.4,35.6,66,29.98,10.0,West,13.8,18.4,N/A,,Overcast,260,2012-12-30 01:35:00
8:55 PM,46.4,35.6,66,29.99,10.0,West,10.4,16.1,N/A,,Overcast,270,2012-12-30 01:55:00
9:15 PM,44.6,33.8,66,30.01,10.0,West,18.4,26.5,N/A,,Mostly Cloudy,280,2012-12-30 02:15:00
9:35 PM,44.6,33.8,66,30.02,10.0,West,15.0,24.2,N/A,,Scattered Clouds,260,2012-12-30 02:35:00
9:55 PM,42.8,32.0,66,30.03,10.0,West,12.7,23.0,N/A,,Clear,270,2012-12-30 02:55:00
10:15 PM,42.8,32.0,66,30.04,10.0,West,15.0,23.0,N/A,,Clear,280,2012-12-30 03:15:00
10:35 PM,42.8,32.0,66,30.04,10.0,West,10.4,19.6,N/A,,Clear,270,2012-12-30 03:35:00
10:55 PM,42.8,32.0,66,30.06,10.0,West,8.1,18.4,N/A,,Clear,260,2012-12-30 03:55:00
11:15 PM,41.0,32.0,70,30.07,10.0,West,9.2,-,N/A,,Clear,270,2012-12-30 04:15:00
11:35 PM,41.0,32.0,70,30.07,10.0,West,10.4,19.6,N/A,,Clear,280,2012-12-30 04:35:00
11:55 PM,41.0,32.0,70,30.08,10.0,West,8.1,-,N/A,,Clear,270,2012-12-30 04:55:00